Probability
0 0 0 0 0 0 0 0 0 0 0 0 0 0 0 0 0 0 0 0 0 0 0 0 0 0 0 0 0 0 0 0 0 0 0 0 0 0
0 0 0 0 0 0 0 0 0 0 0 0 0 0 0 0 0 0 0 0 0 0 0 0 0 0 0 0 0 0 0 0 0 0 0 0 0 0
0 0 0 0 0 0 0 0 0 0 0 0 0 0 0 0 0 0 0 0 0 0 0 0 0 0 0 0 0 0 0 0 0 0 0 0 0 0
0 0 0 0 0 0 0 0 0 0 0 0 0 0 0 0 0 0 0 0 0 0 0 0 0 0 0 0 0 0 0 0 0 0 0 0 0 0
0 0 0 0 0 0 0 0 0 0 0 0 0 0 0 0 0 0 0 0 0 0 0 0 0 0 0 0 0 0 0 0 0 0 0 0 0 0
0 0 0 0 0 0 0 0 0 0 0 0 0 0 0 0 0 0 0 0 0 0 0 0 0 0 0 0 0 0 0 0 0 0 0 0 0 0
0 0 0 0 0 0 0 0 0 0 0 0 0 0 0 0 0 0 0 0 0 0 0 0 0 0 0 0 0 0 0 0 0 0 0 0 0 0
0 0 0 0 0 0 0 0 0 0 0 0 0 0 0 0 0 0 0 0 0 0 0 0 0 0 0 0 0 0 0 0 0 0 0 0 0 0
0 0 0 0 0 0 0 0 0 0 0 0 0 0 0 0 0 0 0 0 0 0 0 0 0 0 0 0 0 0 0 0 0 0 0 0 0 0
0 0 0 0 0 0 0 0 0 0 0 0 0 0 0 0 0 0 0 0 0 0 0 0 0 0 0 0 0 0 0 0 0 0 0 0 0 0
0 0 0 0 0 0 0 0 0 0 0 0 0 0 0 0 0 0 0 0 0 0 0 0 0 0 0 0 0 0 0 0 0 0 0 0 0 0
0 0 0 0 0 0 0 0 0 0 0 0 0 0 0 0 0 0 0 0 0 0 0 0 0 0 0 0 0 0 0 0 0 0 0 0 0 0
0 0 0 0 0 0 0 0 0 0 0 0 0 0 0 0 0 0 0 0 0 0 0 0 0 0 0 0 0 0 0 0 0 0 0 0 0 0
0 0 0 0 0 0 0 0 0 0 0 0 0 0 0 0 0 0 0 0 0 0 0 0 0 0 0 0 0 0 0 0 0 0 0 0 0 0
0 0 0 0 0 0 0 0 0 0 0 0 0 0 0 0 0 0 0 0 0 0 0 0 0 0 0 0 0 0 0 0 0 0 0 0 0 0
0 0 0 0 0 0 0 0 0 0 0 0 0 0 0 0 0 0 0 0 0 0 0 0 0 0 0 0 0 0 0 0 0 0 0 0 0 0
0 0 0 0 0 0 0 0 0 0 0 0 0 0 0 0 0 0 0 0 0 0 0 0 0 0 0 0 0 0 0 0 0 0 0 0 0 0
0 0 0 0 0 0 0 0 0 0 0 0 0 0 0 0 0 0 0 0 0 0 0 0 0 0 0 0 0 0 0 0 0 0 0 0 0 0
0 0 0 0 0 0 0 0 0 0 0 0 0 0 0 0 0 0 0 0 0 0 0 0 0 0 0 0 0 0 0 0 0 0 0 0 0 0
0 0 0 0 0 0 0 0 0 0 0 0 0 0 0 0 0 0 0 0 0 0 0 0 0 0 0 0 0 0 0 0 0 0 0 0 0 0
0 0 0 0 0 0 0 0 0 0 0 0 0 0 0 0 0 0 0 0 0 0 0 0 0 0 0 0 0 0 0 0 0 0 0 0 0 0
0 0 0 0 0 0 0 0 0 0 0 0 0 0 0 0 0 0 0 0 0 0 0 0 0 0 0 0 0 0 0 0 0 0 0 0 0 0
0 0 0 0 0 0 0 0 0 0 0 0 0 0 0 0 0 0 0 0 0 0 0 0 0 0 0 0 0 0 0 0 0 0 0 0 0 0
Wind_Speed
3 3 3 2 2 3 3 3 2 2 3 2 2 2 2 2 2 2 2 2 2 3 2 2 3 3 3 3 3 4 4 4 4 4 5 6 6 7
2 2 2 2 2 2 3 3 3 3 3 2 2 3 3 2 2 2 2 3 3 3 3 3 3 4 4 4 4 4 4 4 4 5 6 6 7 7
2 2 3 2 2 2 2 2 2 3 3 3 2 2 2 2 2 2 2 2 2 4 4 4 5 5 4 4 4 4 4 4 5 6 6 6 6 6
3 3 3 2 2 2 2 2 2 3 3 3 2 2 2 2 2 2 2 2 2 4 5 5 6 6 5 5 5 5 4 4 4 5 5 6 6 6
3 3 4 3 3 2 2 2 2 2 2 2 2 1 1 1 2 2 2 2 2 3 4 5 6 6 6 6 6 6 5 5 5 5 5 5 5 6
3 3 4 3 3 3 2 2 2 1 1 1 2 1 1 2 1 1 2 1 2 2 3 3 4 6 6 7 7 6 7 7 7 6 6 6 6 6
3 3 3 3 4 3 3 2 2 1 1 1 2 1 2 1 2 1 2 2 2 2 2 2 2 3 4 5 7 8 8 8 8 8 8 7 7 7
3 3 3 2 3 3 3 4 4 3 2 2 2 3 3 3 2 2 2 1 2 1 1 2 2 3 3 4 6 8 9 9 9 8 9 8 8 8
2 3 3 3 3 2 3 3 3 4 6 4 4 5 4 4 3 3 3 3 3 2 1 3 2 3 3 4 7 8 9 9 9 9 9 9 9 9
3 3 3 4 3 3 2 3 3 3 3 4 5 6 6 4 4 4 3 3 3 3 3 3 2 3 3 3 6 8 9 9 9 9 9 9 9 9
3 3 2 3 4 3 2 3 4 4 3 4 5 6 7 7 5 2 3 2 3 2 3 3 2 2 2 3 3 6 8 9 10 10 10 10 10 8
3 3 3 4 5 4 2 2 4 5 4 4 4 4 4 5 6 6 4 3 3 3 3 3 2 1 2 2 2 2 4 6 9 10 10 10 10 6
3 4 4 4 5 5 4 4 6 5 4 4 4 4 3 3 4 4 6 5 4 4 3 4 3 2 3 2 2 2 3 3 4 5 9 11 11 9
4 4 4 7 7 7 5 5 7 5 3 3 3 4 4 4 3 4 6 7 7 8 5 5 4 4 3 3 3 2 3 3 4 4 5 7 9 11
4 6 7 8 7 5 5 6 5 3 2 3 4 5 4 4 4 3 4 4 6 7 7 8 7 5 5 5 4 3 3 3 4 4 4 5 5 5
3 5 6 6 5 5 5 4 3 3 3 4 5 4 4 3 4 3 3 2 3 4 4 7 8 7 5 6 6 5 5 4 3 4 4 4 5 6
3 2 2 3 4 4 4 4 3 3 3 3 4 4 4 4 4 3 2 2 3 3 3 2 3 5 6 5 4 6 5 5 5 4 4 4 5 6
1 2 3 4 4 5 5 5 4 4 4 4 4 4 4 4 4 3 3 3 3 4 4 3 1 1 2 4 8 7 5 5 5 4 4 5 6 5
1 3 4 4 4 5 4 4 5 4 3 4 4 4 4 4 3 3 3 3 4 4 4 3 2 2 4 5 4 7 6 5 4 4 5 5 6 5
2 3 4 4 4 5 5 5 5 5 4 4 4 4 3 3 3 4 3 4 4 4 4 4 4 4 5 5 5 4 8 6 5 5 5 4 5 5
3 4 4 5 5 5 5 5 5 5 5 4 3 4 3 3 4 4 4 5 5 5 5 5 5 5 4 3 4 4 4 7 8 5 4 4 4 4
4 5 5 5 4 5 5 5 5 4 4 4 4 4 4 4 4 5 5 5 4 5 6 5 4 2 3 4 6 6 5 4 5 9 9 8 5 5
4 4 4 5 4 4 4 5 5 4 4 4 4 4 4 4 4 4 5 5 5 5 5 4 3 3 4 4 5 5 6 6 4 3 5 8 11 11
Wind_Direction
262 256 253 250 237 233 225 217 230 268 279 278 274 264 259 254 256 249 247 254 266 269 262 247 245 244 236 238 234 234 239 232 219 216 214 210 210 210
262 263 266 258 258 248 234 227 224 231 255 258 266 279 273 275 257 252 249 262 261 252 238 233 238 238 237 236 232 231 229 225 221 216 207 206 206 206
281 269 275 269 265 267 244 226 221 217 243 269 272 288 269 270 283 276 263 253 257 249 241 233 235 236 237 236 233 230 229 226 219 209 204 203 202 203
278 277 280 278 267 261 247 237 228 217 221 258 278 288 278 267 268 269 269 255 251 250 237 231 235 237 236 234 232 226 220 218 212 208 207 205 203 205
259 258 266 271 277 274 259 259 250 235 219 230 261 272 289 291 289 282 279 276 268 254 238 232 232 232 231 229 228 222 214 214 215 211 210 211 209 211
263 256 257 251 255 266 261 258 253 247 236 234 257 273 276 284 260 275 291 281 284 274 254 241 235 235 232 228 226 221 218 217 216 215 211 208 206 208
292 282 271 264 250 245 243 245 236 238 246 249 261 264 270 264 257 252 268 288 284 253 256 252 237 242 239 233 230 226 222 221 218 215 212 210 209 209
301 308 301 293 298 294 272 249 224 215 225 232 244 250 261 252 251 246 255 283 285 235 238 267 235 249 245 234 228 224 223 221 218 217 216 212 211 212
291 301 312 318 321 312 303 290 264 234 219 214 231 244 248 238 227 244 234 232 252 259 238 264 245 256 254 241 227 226 225 221 217 215 214 212 212 215
293 281 284 301 313 317 310 312 299 279 245 228 232 244 248 245 229 238 240 252 260 245 217 245 246 253 263 251 234 226 223 220 218 216 216 216 217 218
302 293 281 290 302 317 310 306 307 302 283 255 248 255 255 249 229 214 219 229 265 259 201 224 246 255 262 256 241 225 222 220 218 217 217 217 217 215
310 304 287 280 290 303 281 278 291 295 307 314 304 290 269 257 232 216 219 225 245 256 209 203 228 234 268 252 249 234 225 225 223 222 220 217 211 208
299 302 298 297 294 294 283 259 260 275 292 294 295 294 284 261 245 224 215 217 226 241 215 192 213 210 235 262 261 239 227 222 214 223 221 219 212 204
277 287 293 301 301 297 289 271 273 276 271 278 284 286 282 275 264 247 229 225 228 236 232 207 223 218 225 245 258 252 235 225 218 223 220 215 218 215
273 284 295 301 303 298 287 287 286 271 265 271 274 276 271 269 272 270 253 237 240 242 238 227 227 228 226 237 246 246 250 242 223 224 224 218 215 204
290 296 298 296 289 283 293 297 280 258 252 263 274 276 276 275 271 266 265 259 263 268 243 228 225 220 228 233 237 247 240 238 233 226 228 234 228 217
305 306 316 324 325 320 313 302 290 279 269 266 271 282 286 287 284 272 257 251 248 269 287 273 229 224 230 231 235 242 244 243 239 231 223 239 239 227
271 285 298 300 299 300 303 304 297 284 276 272 270 268 275 283 288 285 271 264 266 268 272 276 264 245 239 240 224 240 245 243 239 225 224 236 249 240
247 280 285 289 290 291 291 291 291 289 281 277 275 272 273 276 279 281 273 267 270 273 270 263 252 240 262 277 254 215 229 247 241 236 229 228 244 249
258 278 288 292 291 292 292 290 293 297 289 280 276 273 268 269 273 276 274 271 274 277 276 266 248 240 244 262 271 258 223 228 233 239 242 240 249 258
289 285 285 286 287 286 284 285 287 291 295 289 284 282 278 272 275 280 281 280 274 273 273 272 267 249 245 244 255 260 253 227 223 227 234 240 246 246
284 284 284 284 286 288 289 290 291 291 299 297 293 289 286 278 275 278 277 276 274 274 277 281 284 260 234 242 261 272 280 277 247 233 231 225 224 234
280 283 286 292 293 291 290 291 293 296 301 301 299 295 290 286 281 280 281 277 278 281 285 287 283 265 256 255 263 273 278 280 276 265 257 240 233 245